DL1BWU Weather Reports


time (UTC)temp
F
wind
direction
speed
knots
gust
knots
rain 1hr
in
rain 24hr
in
rain mn
in
humidity
%
barometer
mb
20260507052503 45 112 0.0 0.0 0.00 0.42 0.00 72 1011.9
20260507051504 45 225 0.0 0.0 0.00 0.42 0.00 72 1011.9
20260507050504 45 22 0.0 0.0 0.00 0.42 0.00 72 1011.7
20260507045504 44 135 0.0 0.0 0.00 0.50 0.00 72 1011.7
20260507044504 44 202 0.0 0.0 0.00 0.50 0.00 72 1011.6
20260507043504 44 67 0.0 0.0 0.00 0.50 0.00 72 1011.6
20260507042504 44 45 0.0 0.0 0.00 0.50 0.00 72 1011.2
20260507041504 44 45 0.0 0.0 0.00 0.50 0.00 72 1011.2
20260507040504 44 135 0.0 0.0 0.00 0.50 0.00 73 1011.1
20260507035504 44 112 0.0 0.0 0.00 0.59 0.00 73 1011.1
20260507034504 44 67 0.0 0.0 0.00 0.59 0.00 73 1011.0
20260507033504 44 67 0.0 0.0 0.00 0.59 0.00 72 1011.0
20260507032504 44 337 0.0 0.0 0.00 0.59 0.00 73 1011.0
20260507031504 44 45 0.0 0.0 0.00 0.59 0.00 73 1011.0
20260507030504 44 112 0.0 0.0 0.00 0.59 0.00 73 1010.8
20260507025504 45 180 0.0 0.0 0.00 0.75 0.00 72 1010.8
20260507024504 45 90 0.0 0.0 0.00 0.75 0.00 72 1010.9
20260507023504 45 157 0.0 0.0 0.00 0.75 0.00 72 1010.8
20260507022504 45 157 0.0 0.0 0.00 0.75 0.00 72 1010.7
20260507021504 45 157 0.0 0.0 0.00 0.75 0.00 72 1010.7
20260507020504 45 22 0.0 0.0 0.00 0.75 0.00 72 1010.7
20260507015504 45 45 0.0 0.0 0.00 0.85 0.00 72 1010.7
20260507014504 45 135 0.0 0.0 0.00 0.85 0.00 72 1010.5
20260507013504 45 45 0.0 0.0 0.00 0.85 0.00 72 1010.4
20260507012504 45 67 0.0 0.0 0.00 0.85 0.00 72 1010.4
20260507011504 45 135 0.0 0.0 0.00 0.85 0.00 72 1010.4
20260507010504 45 22 0.0 0.0 0.00 0.85 0.00 72 1010.2
20260507005504 45 135 0.0 0.0 0.00 0.85 0.00 72 1010.0
20260507004504 45 135 0.0 0.0 0.00 0.85 0.00 72 1009.9
20260507003504 45 112 0.0 0.0 0.00 0.85 0.00 72 1009.8
20260507002504 45 112 0.0 0.0 0.00 0.85 0.00 72 1009.8
20260507001504 45 112 0.0 0.0 0.00 0.85 0.00 72 1009.7
20260507000505 45 112 0.0 0.0 0.00 0.85 0.00 72 1009.7
20260506235504 45 90 0.0 0.0 0.00 0.85 0.00 72 1010.0
20260506234504 45 67 0.0 0.0 0.00 0.85 0.00 72 1010.0
20260506233504 45 112 0.0 0.0 0.00 0.85 0.00 72 1010.0
20260506232504 45 180 0.0 0.0 0.00 0.85 0.00 72 1009.9
20260506231504 45 22 0.0 0.0 0.00 0.85 0.00 72 1009.8
20260506230504 45 67 0.0 0.0 0.00 0.85 0.00 72 1009.8
20260506225504 45 157 0.0 0.0 0.00 0.85 0.00 72 1009.5
20260506224558 45 67 0.0 0.0 0.00 0.85 0.00 72 1009.5
20260506224504 45 67 0.0 0.0 0.00 0.85 0.00 72 1009.5
20260506223504 45 112 0.0 0.0 0.00 0.85 0.00 72 1009.4
20260506222504 46 135 0.0 0.0 0.00 0.85 0.00 72 1009.4
20260506221504 46 112 0.0 0.0 0.00 0.85 0.00 72 1009.5
20260506220504 46 112 0.0 0.0 0.00 0.85 0.00 72 1009.5
20260506215504 47 90 0.0 0.0 0.00 0.85 0.00 72 1009.6
20260506214504 48 22 0.0 0.0 0.00 0.85 0.00 72 1009.6
20260506213504 48 292 0.0 0.0 0.00 0.85 0.00 72 1009.4
20260506212505 49 45 0.0 0.0 0.00 0.85 0.00 72 1009.3
20260506211505 49 157 0.0 0.0 0.00 0.85 0.00 72 1009.1
20260506210505 49 90 0.0 0.0 0.00 0.85 0.00 72 1008.9
20260506205505 49 45 0.0 0.0 0.00 0.85 0.00 72 1008.9
20260506204505 50 67 0.0 0.0 0.00 0.85 0.00 72 1008.8
20260506203505 50 67 0.0 0.0 0.00 0.85 0.00 72 1008.5
20260506202505 50 67 0.0 0.0 0.00 0.85 0.00 72 1008.6
20260506201505 50 90 0.0 0.0 0.00 0.85 0.00 72 1008.5
20260506200505 50 90 0.0 0.0 0.00 0.85 0.00 72 1008.5
20260506195505 50 67 0.0 0.0 0.00 0.85 0.00 72 1008.2
20260506194505 50 67 0.0 0.0 0.00 0.85 0.00 72 1008.2
20260506193505 50 67 0.0 0.0 0.00 0.85 0.00 72 1008.1
20260506192505 50 90 0.0 0.0 0.00 0.85 0.00 72 1008.0
20260506191505 50 67 0.0 0.0 0.00 0.85 0.00 72 1007.9
20260506190505 50 22 0.0 0.0 0.00 0.85 0.00 72 1008.1
20260506185505 50 22 0.0 0.0 0.00 0.85 0.00 72 1008.1
20260506184505 51 202 0.0 0.0 0.00 0.85 0.00 72 1007.7
20260506183505 51 112 0.0 0.0 0.00 0.85 0.00 72 1007.7
20260506182505 51 67 0.0 0.0 0.00 0.85 0.00 72 1007.5
20260506181505 51 67 0.0 0.0 0.00 0.85 0.00 72 1007.4
20260506180505 51 67 0.0 0.0 0.00 0.85 0.00 72 1007.4
20260506175505 51 67 0.0 0.0 0.00 0.85 0.00 72 1007.3
20260506174505 51 90 0.0 0.0 0.00 0.85 0.00 72 1007.4
20260506173505 51 90 0.0 0.0 0.00 0.85 0.00 72 1007.6
20260506172505 51 90 0.0 0.0 0.00 0.85 0.00 72 1007.3
20260506171505 51 225 0.0 0.0 0.00 0.85 0.00 72 1007.4
20260506170505 52 225 0.0 0.0 0.00 0.85 0.00 72 1007.5
20260506165505 51 67 0.0 0.0 0.00 0.85 0.00 72 1007.3
20260506164505 51 67 0.0 0.0 0.00 0.85 0.00 72 1007.2
20260506163505 51 67 0.0 0.0 0.00 0.85 0.00 72 1007.3
20260506162505 51 67 0.0 0.0 0.00 0.85 0.00 72 1007.3
20260506161505 51 90 0.0 0.0 0.00 0.85 0.00 72 1007.3
20260506160505 51 67 0.0 0.0 0.00 0.85 0.00 72 1007.4
20260506155505 52 270 0.0 0.0 0.00 0.85 0.00 72 1007.5
20260506154505 52 270 0.0 0.0 0.00 0.85 0.00 72 1007.3
20260506153505 52 67 0.0 0.0 0.00 0.85 0.00 72 1007.2
20260506152505 52 90 0.0 0.0 0.00 0.85 0.00 72 1007.3
20260506151505 52 45 0.0 0.0 0.00 0.85 0.00 72 1007.3
20260506150855 53 45 0.0 0.0 0.00 0.85 0.00 71 1007.1
20260506150758 53 45 0.0 0.0 0.00 0.85 0.00 71 1007.1
20260506150505 53 45 0.0 0.0 0.00 0.85 0.00 71 1007.1
20260506145505 53 22 0.0 0.0 0.00 0.85 0.00 71 1007.1
20260506144505 52 67 0.0 0.0 0.00 0.85 0.00 71 1007.1
20260506143505 52 292 0.0 0.0 0.00 0.85 0.00 72 1007.0
20260506142505 52 45 0.0 0.0 0.00 0.85 0.00 72 1007.1
20260506141505 52 67 0.0 0.0 0.00 0.85 0.00 71 1007.1
20260506140505 52 112 0.0 0.0 0.00 0.85 0.00 71 1007.2
20260506135505 52 112 0.0 0.0 0.00 0.85 0.00 72 1007.1
20260506134505 52 45 0.0 0.0 0.00 0.85 0.00 71 1007.0
20260506133505 52 67 0.0 0.0 0.00 0.85 0.00 71 1007.0
20260506132505 52 90 0.0 0.0 0.00 0.85 0.00 71 1006.7
20260506131505 52 337 0.0 0.0 0.00 0.85 0.00 71 1006.9
20260506125505 53 45 0.0 0.0 0.00 0.85 0.00 71 1006.8
20260506124505 52 22 0.0 0.0 0.00 0.85 0.00 71 1006.8
20260506123505 53 67 0.0 0.0 0.02 0.85 0.00 71 1006.9
20260506122505 52 45 0.0 0.0 0.04 0.85 0.00 71 1006.8
20260506121505 52 90 0.0 0.0 0.04 0.85 0.00 71 1006.8
20260506120505 52 157 0.0 0.0 0.04 0.85 0.00 71 1006.7
20260506115505 52 292 0.0 0.0 0.04 0.85 0.00 71 1006.6
20260506114505 52 315 0.0 0.0 0.06 0.85 0.00 71 1006.4
20260506113505 52 112 0.0 0.0 0.04 0.83 0.00 71 1006.2
20260506112505 52 112 0.0 0.0 0.02 0.81 0.00 71 1006.1
20260506111505 52 45 0.0 0.0 0.06 0.81 0.00 71 1006.1
20260506110505 52 67 0.0 0.0 0.06 0.81 0.00 71 1006.2
20260506105505 52 292 0.0 0.0 0.06 0.81 0.00 71 1005.9
20260506104505 52 112 0.0 0.0 0.04 0.79 0.00 70 1005.8
20260506103505 52 112 0.0 0.0 0.04 0.79 0.00 70 1005.7
20260506102506 52 67 0.0 0.0 0.02 0.75 0.00 70 1005.8
20260506101506 52 22 0.0 0.0 0.04 0.75 0.00 70 1005.6
20260506100506 51 22 0.0 0.0 0.08 0.75 0.00 70 1005.5
20260506095506 51 45 0.0 0.0 0.10 0.75 0.00 70 1005.4
20260506094506 51 112 0.0 0.0 0.12 0.75 0.00 70 1005.4
20260506093506 51 67 0.0 0.0 0.18 0.75 0.00 70 1005.2
20260506092506 51 270 0.0 0.0 0.14 0.71 0.00 71 1005.0
20260506091506 51 112 0.0 0.0 0.16 0.71 0.00 71 1005.0
20260506090506 51 292 0.0 0.0 0.12 0.67 0.00 71 1005.0
20260506085506 51 337 0.0 0.0 0.10 0.65 0.00 71 1005.0
20260506084506 51 45 0.0 0.0 0.10 0.61 0.00 71 1005.2
20260506083506 51 225 0.0 0.0 0.08 0.57 0.00 71 1005.1
20260506082506 51 225 0.0 0.0 0.10 0.57 0.00 71 1005.1
20260506081506 50 45 0.0 0.0 0.08 0.55 0.00 71 1005.0
20260506080506 50 67 0.0 0.0 0.08 0.55 0.00 71 1005.0
20260506073506 50 112 0.0 0.0 0.06 0.48 0.00 71 1004.7
20260506072506 50 22 0.0 0.0 0.04 0.46 0.00 71 1004.8
20260506071506 50 135 0.0 0.0 0.04 0.46 0.00 71 1004.8
20260506070506 50 90 0.0 0.0 0.04 0.46 0.00 71 1004.6
20260506062507 51 45 0.0 0.0 0.04 0.42 0.00 71 1004.8
20260506061506 51 67 0.0 0.0 0.06 0.42 0.00 71 1004.8
20260506060506 51 22 0.0 0.0 0.08 0.42 0.00 71 1005.0